Location: Powder Track
(41.8531°N, 72.3584°W)
Time: 23:00:13
(UTC+00:00)

Vanguard 2 Rocket - Pass Details

Date: 02 August 2021
Orbit: 555 x 3324 km, 32.9° (Epoch: 18 September)

Event Time Altitude Azimuth Distance (km) Brightness Sun altitude
Rises 15:36:04 0° 257° (WSW) 2,802 9.3 60.4°
Reaches altitude 10° 15:38:31 10° 240° (WSW) 2,032 8.8 60.7°
Maximum altitude 15:41:58 21° 190° (S) 1,669 8.9 61.1°
Drops below altitude 10° 15:46:28 10° 143° (SE) 2,753 10.0 61.6°
Sets 15:50:30 0° 129° (SE) 4,173 10.7 62.0°
